STARLINK-4434 (53501 NORAD) Tracking and Keplerian Element Data

This shows tracking and keplerian element data for the satellite.

Feedback or suggestion? Click here.




ElementValue
Catalog53501
NameSTARLINK-4434
Epoch Orbit1552
Epoch Day325.2637763
Epoch Year2022
RAAN84.3247
Inclination97.6561
Eccentricity0.0002446
Argument of Perigee17.4586
Mean Anonmoly342.6722
Mean Motion15.01250663
Decay Rate-2.377E-05
L11 53501U 22099AN 22325.26377630 -.00002377 00000+0 -18054-3 0 9995
L22 53501 97.6561 84.3247 0002446 17.4586 342.6722 15.01250663 15523



Live tracking and technical data element details for STARLINK-4434 (NORAD 53501). STARLINK-4434 can be tracked NOW for your location showing map with azimuth and elevation plus other details from your city location.







IsCatalogInMostPopularTable: catalog: 53501, numindb: 8
Update: records affected: 1



GetName: 53501 STARLINK-4434

Hit Count: updated at: Thu, 08 Dec 2022 20:37:15 GMT